Вернуться в каталог

SHIYAN 25

SY-25

АктивенНаукаSSO
NORAD 57047·PAYLOAD·🇨🇳 China

Запущен Jun 20, 2023 с Taiyuan Satellite Launch Center

Loading…

Ближайшие Пролёты (ближайшие 24 часа)

TLE

СвежийSource: Space-Track

Эпоха: Sep 14, 2026, 22:07 UTC

1 57047U 23087A   26257.92186421  .00121615  80680-5  22659-3 0  9998
2 57047  96.9001 322.6646 0010504 237.4580 122.5686 16.00985336189153

Отслеживайте SHIYAN 25 в реальном времени с AllMySat

Download on the App Store